User: anonymous   Login
Location: Montr�al
(45.5000°N, 73.5830°W)
Time: 14:56:34
(UTC-04:00)
Language:

Cosmos 2369 - Orbit

View from above orbital plane
View from above orbital plane
View from above satellite
View from above satellite

Ground track
Ground track

The orbit data is extracted from the following two-line orbital elements,

1 26069U 00006A   14302.80426755  .00000372  00000-0  22378-3 0  3874
2 26069 070.9967 212.9085 0012615 250.3465 164.4056 14.13254236760291
Epoch (UTC): 29 October 2014 19:18:08
Eccentricity: 0.0012615
inclination: 70.9967°
perigee height: 839 km
apogee height: 857 km
right ascension of ascending node: 212.9085°
argument of perigee: 250.3465°
revolutions per day: 14.13254236
mean anomaly at epoch: 164.4056°
orbit number at epoch: 76029

The dashed part of the orbit path shows where the satellite is in the earth's shadow,  

DLR